Location: Kermapucano
(48.0667°N, 3.3000°W)
Time: 18:51:57
(UTC+00:00)

SL-4 R/B - Pass Details

Date: 29 November 2020
Orbit: 428 x 664 km, 51.6° (Epoch: 27 January)

Event Time Altitude Azimuth Distance (km) Brightness Sun altitude
Exits shadow 05:50:25 38° 316° (NW) 786 2.4 -17.7°
Maximum altitude 05:51:24 48° 359° (N) 662 2.3 -17.5°
Drops below altitude 10° 05:55:00 10° 76° (ENE) 1,643 5.4 -16.9°
Sets 05:57:08 0° 82° (E) 2,486 6.7 -16.6°
